Simultaneous Nadir Overpasses (SNOs) Predictions

Prediction of SNOs between AURA and NPP Satellite Orbit:

Table of predicted SNOs for the next 14.0 days since TLE Epoch: 8/29/2015
Index Date (AURA) Time (AURA) Lat,Lon (AURA) SZA (AURA ) Date (NPP) Time (NPP) Lat,Lon (NPP) SZA (NPP ) Distance(km) Time Diff (sec)
1 08/31/2015 16:40:43 -78.47, 0.49 94.60 08/31/2015 16:39:30 -78.48, 0.58 94.56 2.20 73
2 08/31/2015 17:29:59 78.87, 170.31 84.89 08/31/2015 17:30:04 78.87, 170.34 84.88 0.59 5
3 09/03/2015 08:57:07 -78.56, 116.85 93.80 09/03/2015 08:56:20 -78.56, 116.85 93.76 0.17 47
4 09/03/2015 09:46:23 78.95, -73.32 85.69 09/03/2015 09:46:54 78.95, -73.37 85.68 1.22 31
5 09/06/2015 01:13:29 -78.72,-126.42 93.07 09/06/2015 01:13:08 -78.72,-126.42 93.06 0.10 21
6 09/06/2015
